Regional Weather Roundup
Issued by NWS

Home | Current Version | Previous Version | Text Only | Print | Product List | Glossary On
Versions: 1 2 3 4 5 6 7 8 9 10 11 12 13 14 15 16 17 18 19 20 21 22 23 24 25 26 27 28 29 30 31 32 33 34 35 36 37 38 39 40 41 42 43 44 45 46 47 48 49 50
000
ASUS43 KDMX 161101
RWRIA

WEATHER ROUNDUP FOR IOWA
NATIONAL WEATHER SERVICE DES MOINES IA
500 AM CST SAT DEC 16 2017

NOTE: "FAIR" INDICATES FEW OR NO CLOUDS BELOW 12,000 FEET WITH NO
SIGNIFICANT WEATHER AND/OR OBSTRUCTIONS TO VISIBILITY.

* - THESE STATIONS ARE NOT NWS STATIONS...THUS NOT UNDER NWS
QUALITY CONTROL.  THEY ALSO DO NOT REPORT WEATHER SUCH
AS PRECIPITATION OR FOG.

IAZ001>003-012>014-020>022-031>034-043>046-161200-
   NORTHWEST IOWA

CITY           SKY/WX    TMP DP  RH WIND       PRES   REMARKS
CARROLL *      PTCLDY    34  23  64 W12       29.70S WCI  25
CHEROKEE *     PTCLDY    27  23  85 CALM      29.69R
DENISON *      CLOUDY    34  21  60 SW5       29.72S WCI  30
LE MARS *      CLOUDY    27  23  86 S7        29.70R WCI  19
ORANGE CITY *  CLOUDY    30  27  86 SW5       29.67S WCI  25
SHELDON *      CLOUDY    23  21  93 CALM      29.66R
SIOUX CITY     CLOUDY    24  20  84 E5        29.72R WCI  18
SPENCER        CLOUDY    25  20  81 CALM      29.67R
STORM LAKE *   CLOUDY    28  21  74 SW10      29.68R WCI  19
$$

IAZ055>058-069>071-079>083-090>094-161200-
   SOUTHWEST IOWA

CITY           SKY/WX    TMP DP  RH WIND       PRES   REMARKS
ATLANTIC *     CLOUDY    30  23  74 SW8       29.74R WCI  23
AUDUBON *      CLOUDY    34  23  64 CALM      29.73R
CLARINDA *     CLOUDY    30  25  80 S6          N/A  WCI  24
COUNCIL BLFS * CLOUDY    37  23  56 SW8       29.73R WCI  31
CRESTON *      CLEAR     36  25  64 SW10      29.76S WCI  28
HARLAN  *      CLOUDY    27  23  86 CALM      29.76S
LAMONI         CLEAR     33  24  69 S12       29.77S WCI  24
RED OAK *      CLOUDY    32  23  69 SW5       29.76S WCI  27
SHENANDOAH *   PTCLDY    36  25  64 SW8       29.77S WCI  29
$$

IAZ047>049-059>061-072>074-084-161200-
   CENTRAL IOWA

CITY           SKY/WX    TMP DP  RH WIND       PRES   REMARKS
AMES           CLOUDY    34  25  69 SW8       29.71S WCI  27
ANKENY *       CLEAR     37  25  60 SW8       29.74S WCI  31
BOONE *        CLOUDY    34  23  64 SW10      29.69S WCI  26
CHARITON *     CLOUDY    36  25  64 SW10      29.76S WCI  28
DES MOINES     CLEAR     38  24  57 SW7       29.74S WCI  33
GRINNELL*      CLEAR     33  25  71 SW13      29.74F WCI  24
KNOXVILLE *    CLEAR     36  23  60 SW12      29.73F WCI  27
MARSHALLTOWN   CLEAR     32  24  72 SW8       29.71S WCI  25
NEWTON *       CLEAR     36  25  64 SW12      29.72F WCI  27
PELLA *        CLEAR     37  25  64 SW12      29.75F WCI  29
PERRY *          N/A     32  21  64 CALM      29.72S
$$

IAZ004>006-015-016-023>025-035-036-161200-
   NORTH CENTRAL IOWA

CITY           SKY/WX    TMP DP  RH WIND       PRES   REMARKS
ALGONA *       CLOUDY    28  25  86 SW10      29.66S WCI  19
CLARION *      CLOUDY    25  23  93 S10       29.69R WCI  15
ESTHERVILLE    CLOUDY    27  23  85 SW9       29.65R WCI  18
FORT DODGE *   CLOUDY    31  23  72 SW9       29.69R WCI  23
MASON CITY     CLOUDY    29  22  75 SW12      29.68S WCI  19
FOREST CITY *    N/A     27  23  86 CALM      29.67S
WEBSTER CITY * CLOUDY    28  21  74 SW10      29.67S WCI  19
IOWA FALLS *     N/A     32  24  72 SW9       29.70S WCI  24
$$

IAZ007>011-017>019-026>030-037>042-050>054-066-161200-
   NORTHEAST IOWA

CITY           SKY/WX    TMP DP  RH WIND       PRES   REMARKS
CEDAR RAPIDS   PTCLDY    33  24  69 S12       29.73R WCI  24
CHARLES CITY * CLOUDY    25  23  93 S8        29.69S WCI  16
CLINTON *      CLOUDY    31  24  75 SW12      29.78F WCI  22
DECORAH *      CLOUDY    32  23  69 S7        29.68F WCI  26
DUBUQUE        CLOUDY    29  22  75 S10       29.73F WCI  20
MONTICELLO *   PTCLDY    30  23  74 S5        29.73F WCI  25
OELWEIN *      PTCLDY    25  23  93 S5        29.72R WCI  19
WATERLOO       PTCLDY    28  21  75 SW6       29.71R WCI  22
$$

IAZ064-065-067-068-078-161200-
   EAST CENTRAL IOWA

CITY           SKY/WX    TMP DP  RH WIND       PRES   REMARKS
DAVENPORT      CLEAR     34  23  64 S13       29.80F WCI  25
IOWA CITY      CLEAR     29  22  75 SE6       29.78S WCI  23
MT. PLEASANT * CLEAR     34  24  67 SW12      29.80R WCI  25
MUSCATINE *    CLEAR     34  25  69 S8        29.80R WCI  27
QUAD CITIES    CLEAR     33  24  69 SW7       29.78F WCI  27
$$

IAZ062-063-075>077-085>089-095>099-161200-
   SOUTHEAST IOWA

CITY           SKY/WX    TMP DP  RH WIND       PRES   REMARKS
BURLINGTON     CLEAR     34  25  69 SW14      29.80F WCI  25
FAIRFIELD *    CLEAR     32  23  69 SW9       29.78R WCI  24
FORT MADISON * CLEAR     36  27  69 SW14      29.81F WCI  27
KEOKUK *       CLEAR     36  25  64 SW14G20   29.82S WCI  27
OSKALOOSA *      N/A     36  25  66 SW15      29.76S WCI  26
OTTUMWA        CLEAR     39  24  55 SW16      29.76F WCI  30
WASHINGTON *   CLEAR     32  25  74 SW13      29.79R WCI  22
$$

ABBREVIATIONS USED IN REMARKS
   TC - TEMPERATURES IN CELSIUS
  WCI - WIND CHILL INDEX
   HX - HEAT INDEX
  VSB - VISIBILITY
$$




USA.gov is the U.S. government's official web portal to all federal, state and local government web resources and services.